FW5790 Weather Reports


Display with metric or nautical units.
time (UTC)temp
F
wind
direction
speed
MPH
gust
MPH
rain 1hr
in
rain 24hr
in
rain mn
in
humidity
%
barometer
mb
20260509064554 57 0 0.0 0.0 0.00 0.00 0.00 77 1010.2
20260509063049 58 0 0.0 0.0 0.00 0.00 0.00 76 1010.2
20260509061546 58 0 0.0 0.0 0.00 0.00 0.00 73 1010.2
20260509060047 58 0 0.0 0.0 0.00 0.00 0.00 74 1010.3
20260509054554 58 0 0.0 0.0 0.00 0.00 0.00 73 1010.3
20260509053047 58 0 0.0 0.0 0.00 0.00 0.00 73 1010.3
20260509051557 59 0 0.0 0.0 0.00 0.00 0.00 71 1010.3
20260509050050 59 0 0.0 0.0 0.00 0.00 0.00 71 1010.3
20260509044550 59 0 0.0 0.0 0.00 0.00 0.00 68 1010.2
20260509043044 59 0 0.0 0.0 0.00 0.00 0.00 69 1010.2
20260509041551 59 0 0.0 0.0 0.00 0.00 0.00 69 1010.2
20260509040049 59 0 0.0 0.0 0.00 0.00 0.00 68 1010.2
20260509034546 60 0 0.0 0.0 0.00 0.00 0.00 67 1010.3
20260509033100 61 0 0.0 0.0 0.00 0.00 0.00 65 1010.7
20260509031552 61 0 0.0 2.0 0.00 0.00 0.00 64 1010.7
20260509030044 61 0 0.0 1.0 0.00 0.00 0.00 63 1010.9
20260509024546 61 0 0.0 1.0 0.00 0.00 0.00 62 1010.8
20260509023047 61 0 0.0 1.0 0.00 0.00 0.00 67 1011.1
20260509021550 61 0 0.0 0.0 0.00 0.00 0.00 64 1011.2
20260509020047 61 0 0.0 0.0 0.00 0.00 0.00 64 1011.1
20260509014551 61 0 0.0 0.0 0.00 0.00 0.00 62 1011.1
20260509013052 61 0 0.0 0.0 0.00 0.00 0.00 63 1011.0
20260509011547 61 0 0.0 0.0 0.00 0.00 0.00 62 1010.9
20260509010048 62 0 0.0 0.0 0.00 0.00 0.00 58 1011.0
20260509004546 63 0 0.0 1.0 0.00 0.00 0.00 60 1010.9
20260509003046 64 91 0.0 1.0 0.00 0.00 0.00 59 1010.9
20260509001544 65 91 0.0 1.0 0.00 0.00 0.00 58 1010.9
20260509000049 66 0 0.0 2.0 0.00 0.00 0.00 56 1010.9
20260508234546 67 72 1.0 3.0 0.00 0.00 0.00 53 1011.0
20260508233100 67 49 1.0 3.0 0.00 0.00 0.00 53 1010.9
20260508231546 68 82 1.0 4.0 0.00 0.00 0.00 52 1011.1
20260508230056 68 85 1.0 6.0 0.00 0.00 0.00 53 1011.0
20260508224543 68 84 1.0 3.0 0.00 0.00 0.00 49 1011.3
20260508223048 69 64 2.0 3.0 0.00 0.00 0.00 52 1011.1
20260508221545 69 63 2.0 4.0 0.00 0.00 0.00 48 1010.9
20260508220046 69 75 1.0 3.0 0.00 0.00 0.00 49 1010.8
20260508214543 70 47 1.0 4.0 0.00 0.00 0.00 52 1010.7
20260508213040 70 77 1.0 4.0 0.00 0.00 0.00 47 1010.7
20260508211546 70 72 1.0 4.0 0.00 0.00 0.00 51 1011.1
20260508210046 70 94 2.0 4.0 0.00 0.00 0.00 47 1011.3
20260508204550 70 0 1.0 3.0 0.00 0.00 0.00 48 1011.3
20260508203051 71 106 1.0 3.0 0.00 0.00 0.00 48 1011.6
20260508201547 71 90 1.0 5.0 0.00 0.00 0.00 47 1011.9
20260508200049 71 46 2.0 4.0 0.00 0.00 0.00 47 1012.2
20260508194547 71 75 1.0 3.0 0.00 0.00 0.00 48 1012.4
20260508193046 71 91 2.0 5.0 0.00 0.00 0.00 45 1012.7
20260508191550 71 94 3.0 5.0 0.00 0.00 0.00 44 1013.0
20260508190052 71 43 2.0 4.0 0.00 0.00 0.00 46 1013.2
20260508184553 72 86 2.0 6.0 0.00 0.00 0.00 44 1012.8
20260508183050 72 108 1.0 5.0 0.00 0.00 0.00 44 1013.0
20260508181545 71 84 2.0 5.0 0.00 0.00 0.00 47 1013.3
20260508180046 71 45 1.0 3.0 0.00 0.00 0.00 50 1013.6
20260508174548 71 50 2.0 5.0 0.00 0.00 0.00 48 1013.8
20260508173046 71 157 2.0 4.0 0.00 0.00 0.00 45 1014.3
20260508171547 72 69 2.0 6.0 0.00 0.00 0.00 44 1014.6
20260508170051 70 67 2.0 3.0 0.00 0.00 0.00 48 1014.7
20260508164546 70 132 2.0 4.0 0.00 0.00 0.00 48 1015.0
20260508163046 70 113 1.0 4.0 0.00 0.00 0.00 51 1015.3
20260508161547 69 46 1.0 3.0 0.00 0.00 0.00 50 1015.5
20260508160053 68 49 1.0 3.0 0.00 0.00 0.00 52 1015.7
20260508154550 67 79 1.0 4.0 0.00 0.00 0.00 53 1015.9
20260508153043 66 96 1.0 4.0 0.00 0.00 0.00 57 1016.2
20260508151545 65 85 1.0 4.0 0.00 0.00 0.00 53 1016.3
20260508150043 64 87 1.0 2.0 0.00 0.00 0.00 57 1016.7
20260508144550 63 83 2.0 3.0 0.00 0.00 0.00 58 1016.7
20260508143055 62 97 1.0 2.0 0.00 0.00 0.00 61 1016.8
20260508141545 61 80 1.0 3.0 0.00 0.00 0.00 60 1016.7
20260508140052 59 82 1.0 4.0 0.00 0.00 0.00 65 1016.5
20260508134547 58 86 1.0 3.0 0.00 0.00 0.00 70 1016.9
20260508133055 56 89 1.0 2.0 0.00 0.00 0.00 70 1016.9
20260508131548 54 0 0.0 2.0 0.00 0.00 0.00 74 1016.7
20260508130100 52 0 0.0 0.0 0.00 0.00 0.00 79 1016.8
20260508124553 50 0 0.0 0.0 0.00 0.00 0.00 81 1016.7
20260508123054 48 0 0.0 0.0 0.00 0.00 0.00 83 1016.9
20260508121557 47 0 0.0 0.0 0.00 0.00 0.00 83 1016.7
20260508120052 45 0 0.0 0.0 0.00 0.00 0.00 84 1016.6
20260508114550 44 0 0.0 0.0 0.00 0.00 0.00 83 1016.5
20260508113044 43 0 0.0 0.0 0.00 0.00 0.00 83 1016.3
20260508111552 42 0 0.0 0.0 0.00 0.00 0.00 83 1016.3
20260508110049 42 0 0.0 0.0 0.00 0.00 0.00 84 1016.2
20260508104552 41 0 0.0 0.0 0.00 0.00 0.00 85 1016.2
20260508103049 41 0 0.0 0.0 0.00 0.00 0.00 85 1016.1
20260508101548 41 0 0.0 0.0 0.00 0.00 0.00 86 1016.1
20260508100044 41 0 0.0 0.0 0.00 0.00 0.00 86 1016.1
20260508094549 41 0 0.0 0.0 0.00 0.00 0.00 86 1016.1
20260508093053 41 0 0.0 0.0 0.00 0.00 0.00 86 1016.1
20260508091556 41 0 0.0 0.0 0.00 0.00 0.00 86 1016.2
20260508090058 42 0 0.0 0.0 0.00 0.00 0.00 86 1016.1
20260508084543 41 0 0.0 0.0 0.00 0.00 0.00 86 1016.0
20260508083044 41 0 0.0 0.0 0.00 0.00 0.00 86 1016.0
20260508081553 42 0 0.0 0.0 0.00 0.00 0.00 86 1015.9
20260508080050 42 0 0.0 0.0 0.00 0.00 0.00 85 1016.0
20260508074544 42 0 0.0 0.0 0.00 0.00 0.00 86 1015.8
20260508073103 42 0 0.0 0.0 0.00 0.00 0.00 85 1015.9
20260508071555 42 0 0.0 0.0 0.00 0.00 0.00 85 1016.0
20260508070052 42 0 0.0 0.0 0.00 0.00 0.00 85 1016.1